| time (UTC) | temp C | wind direction | speed KPH | gust KPH | rain 1hr cm | rain 24hr cm | rain mn cm | humidity % | barometer mb |
| 20260508213014 | 25 | 275 | 3.2 | 19.3 | 0.00 | 0.00 | 0.00 | 21 | 1007.9 |
| 20260508211505 | 25 | 309 | 1.6 | 12.9 | 0.00 | 0.00 | 0.00 | 20 | 1008.1 |
| 20260508210002 | 25 | 40 | 1.6 | 12.9 | 0.00 | 0.00 | 0.00 | 21 | 1008.2 |
| 20260508204503 | 25 | 290 | 8.0 | 29.0 | 0.00 | 0.00 | 0.00 | 19 | 1008.4 |
| 20260508203104 | 25 | 323 | 1.6 | 11.3 | 0.00 | 0.00 | 0.00 | 20 | 1008.5 |
| 20260508201559 | 25 | 70 | 1.6 | 11.3 | 0.00 | 0.00 | 0.00 | 22 | 1008.6 |
| 20260508200100 | 24 | 351 | 1.6 | 17.7 | 0.00 | 0.00 | 0.00 | 22 | 1008.7 |
| 20260508194554 | 24 | 241 | 4.8 | 11.3 | 0.00 | 0.00 | 0.00 | 22 | 1008.7 |
| 20260508193057 | 23 | 305 | 1.6 | 9.7 | 0.00 | 0.00 | 0.00 | 26 | 1008.9 |
| 20260508191557 | 23 | 292 | 3.2 | 14.5 | 0.00 | 0.00 | 0.00 | 28 | 1009.1 |
| 20260508190052 | 23 | 207 | 1.6 | 17.7 | 0.00 | 0.00 | 0.00 | 26 | 1009.3 |
| 20260508184547 | 23 | 281 | 1.6 | 11.3 | 0.00 | 0.00 | 0.00 | 24 | 1009.5 |
| 20260508183045 | 22 | 294 | 3.2 | 12.9 | 0.00 | 0.00 | 0.00 | 24 | 1009.6 |
| 20260508181545 | 22 | 280 | 0.0 | 17.7 | 0.00 | 0.00 | 0.00 | 26 | 1009.7 |
| 20260508180044 | 22 | 267 | 1.6 | 14.5 | 0.00 | 0.00 | 0.00 | 25 | 1009.9 |
| 20260508174541 | 22 | 270 | 3.2 | 11.3 | 0.00 | 0.00 | 0.00 | 29 | 1009.9 |
| 20260508173041 | 22 | 217 | 3.2 | 14.5 | 0.00 | 0.00 | 0.00 | 32 | 1010.0 |
| 20260508171539 | 22 | 283 | 1.6 | 14.5 | 0.00 | 0.00 | 0.00 | 30 | 1009.8 |
| 20260508170036 | 21 | 279 | 0.0 | 11.3 | 0.00 | 0.00 | 0.00 | 31 | 1009.8 |
| 20260508164536 | 21 | 296 | 1.6 | 9.7 | 0.00 | 0.00 | 0.00 | 30 | 1009.8 |
| 20260508163030 | 20 | 267 | 3.2 | 9.7 | 0.00 | 0.00 | 0.00 | 33 | 1009.8 |
| 20260508161527 | 20 | 279 | 3.2 | 9.7 | 0.00 | 0.00 | 0.00 | 35 | 1009.8 |
| 20260508160032 | 20 | 296 | 4.8 | 11.3 | 0.00 | 0.00 | 0.00 | 33 | 1009.7 |
| 20260508154524 | 20 | 0.0 | 0.0 | 0.00 | 0.00 | 0.00 | 33 | 1009.7 | |
| 20260508153018 | 19 | 0.0 | 0.0 | 0.00 | 0.00 | 0.00 | 36 | 1009.6 | |
| 20260508151514 | 18 | 0.0 | 0.0 | 0.00 | 0.00 | 0.00 | 37 | 1009.6 | |
| 20260508150009 | 18 | 0.0 | 0.0 | 0.00 | 0.00 | 0.00 | 40 | 1009.5 | |
| 20260508144504 | 17 | 0.0 | 0.0 | 0.00 | 0.00 | 0.00 | 42 | 1009.4 | |
| 20260508143104 | 16 | 0.0 | 0.0 | 0.00 | 0.00 | 0.00 | 47 | 1009.4 | |
| 20260508141556 | 15 | 0.0 | 0.0 | 0.00 | 0.00 | 0.00 | 52 | 1009.3 | |
| 20260508140051 | 13 | 0.0 | 0.0 | 0.00 | 0.00 | 0.00 | 58 | 1009.2 | |
| 20260508134546 | 12 | 0.0 | 0.0 | 0.00 | 0.00 | 0.00 | 60 | 1009.0 | |
| 20260508133043 | 10 | 0.0 | 0.0 | 0.00 | 0.00 | 0.00 | 66 | 1008.8 | |
| 20260508131538 | 9 | 0.0 | 0.0 | 0.00 | 0.00 | 0.00 | 67 | 1008.5 | |
| 20260508130049 | -17 | 0.0 | 0.0 | 0.00 | 0.00 | 0.00 | 1008.4 | ||
| 20260508124530 | -17 | 0.0 | 0.0 | 0.00 | 0.00 | 0.00 | 1008.3 | ||
| 20260508123025 | -17 | 0.0 | 0.0 | 0.00 | 0.00 | 0.00 | 1008.2 | ||
| 20260508121521 | -17 | 0.0 | 0.0 | 0.00 | 0.00 | 0.00 | 1008.2 | ||
| 20260508120017 | -17 | 0.0 | 0.0 | 0.00 | 0.00 | 0.00 | 1008.3 | ||
| 20260508114512 | -17 | 0.0 | 0.0 | 0.00 | 0.00 | 0.00 | 1008.4 | ||
| 20260508113008 | 9 | 0.0 | 0.0 | 0.00 | 0.00 | 0.00 | 66 | 1008.4 | |
| 20260508111505 | 9 | 0.0 | 0.0 | 0.00 | 0.00 | 0.00 | 65 | 1008.4 | |
| 20260508110103 | 9 | 0.0 | 0.0 | 0.00 | 0.00 | 0.00 | 66 | 1008.4 | |
| 20260508104620 | 9 | 0.0 | 0.0 | 0.00 | 0.00 | 0.00 | 65 | 1008.4 | |
| 20260508103050 | 9 | 0.0 | 0.0 | 0.00 | 0.00 | 0.00 | 64 | 1008.2 | |
| 20260508101549 | 10 | 0.0 | 0.0 | 0.00 | 0.00 | 0.00 | 63 | 1008.2 | |
| 20260508100041 | 9 | 0.0 | 0.0 | 0.00 | 0.00 | 0.00 | 64 | 1008.1 | |
| 20260508094543 | 10 | 0.0 | 0.0 | 0.00 | 0.00 | 0.00 | 63 | 1008.0 | |
| 20260508093033 | 10 | 0.0 | 0.0 | 0.00 | 0.00 | 0.00 | 62 | 1007.9 | |
| 20260508091528 | 10 | 0.0 | 0.0 | 0.00 | 0.00 | 0.00 | 62 | 1007.8 | |
| 20260508090027 | 10 | 0.0 | 0.0 | 0.00 | 0.00 | 0.00 | 63 | 1007.8 | |
| 20260508084519 | 9 | 0.0 | 0.0 | 0.00 | 0.00 | 0.00 | 63 | 1007.9 | |
| 20260508083014 | 10 | 0.0 | 0.0 | 0.00 | 0.00 | 0.00 | 63 | 1008.0 | |
| 20260508081511 | 10 | 0.0 | 0.0 | 0.00 | 0.00 | 0.00 | 60 | 1007.9 | |
| 20260508080006 | 10 | 0.0 | 0.0 | 0.00 | 0.00 | 0.00 | 59 | 1007.9 | |
| 20260508074502 | 11 | 0.0 | 0.0 | 0.00 | 0.00 | 0.00 | 58 | 1007.8 | |
| 20260508073059 | 11 | 0.0 | 0.0 | 0.00 | 0.00 | 0.00 | 57 | 1007.7 | |
| 20260508071601 | 11 | 0.0 | 0.0 | 0.00 | 0.00 | 0.00 | 57 | 1007.7 | |
| 20260508070136 | 11 | 0.0 | 0.0 | 0.00 | 0.00 | 0.00 | 58 | 1007.6 | |
| 20260508064549 | 11 | 0.0 | 0.0 | 0.00 | 0.00 | 0.00 | 55 | 1007.6 | |
| 20260508063041 | 11 | 0.0 | 0.0 | 0.00 | 0.00 | 0.00 | 55 | 1007.8 | |
| 20260508061539 | 12 | 0.0 | 0.0 | 0.00 | 0.00 | 0.00 | 53 | 1007.7 | |
| 20260508060033 | 12 | 0.0 | 0.0 | 0.00 | 0.00 | 0.00 | 51 | 1007.7 | |
| 20260508054527 | 12 | 0.0 | 0.0 | 0.00 | 0.00 | 0.00 | 52 | 1007.6 | |
| 20260508053022 | 12 | 0.0 | 0.0 | 0.00 | 0.00 | 0.00 | 51 | 1007.5 | |
| 20260508051518 | 13 | 0.0 | 0.0 | 0.00 | 0.00 | 0.00 | 49 | 1007.4 | |
| 20260508050020 | 14 | 0.0 | 0.0 | 0.00 | 0.00 | 0.00 | 45 | 1007.4 | |
| 20260508044509 | 15 | 0.0 | 0.0 | 0.00 | 0.00 | 0.00 | 41 | 1007.4 | |
| 20260508043004 | 16 | 0.0 | 0.0 | 0.00 | 0.00 | 0.00 | 36 | 1007.3 | |
| 20260508041601 | 15 | 0.0 | 0.0 | 0.00 | 0.00 | 0.00 | 40 | 1007.4 | |
| 20260508040056 | 14 | 0.0 | 0.0 | 0.00 | 0.00 | 0.00 | 46 | 1007.3 | |
| 20260508034552 | 13 | 0.0 | 0.0 | 0.00 | 0.00 | 0.00 | 45 | 1007.1 | |
| 20260508033049 | 14 | 0.0 | 0.0 | 0.00 | 0.00 | 0.00 | 46 | 1007.1 | |
| 20260508031551 | 15 | 0.0 | 0.0 | 0.00 | 0.00 | 0.00 | 43 | 1007.0 | |
| 20260508030049 | 16 | 0.0 | 0.0 | 0.00 | 0.00 | 0.00 | 38 | 1006.7 | |
| 20260508024535 | 17 | 0.0 | 0.0 | 0.00 | 0.00 | 0.00 | 36 | 1006.8 | |
| 20260508023030 | 18 | 0.0 | 0.0 | 0.00 | 0.00 | 0.00 | 34 | 1006.7 | |
| 20260508021527 | 20 | 292 | 0.0 | 0.0 | 0.00 | 0.00 | 0.00 | 29 | 1006.7 |
| 20260508020025 | 21 | 292 | 0.0 | 0.0 | 0.00 | 0.00 | 0.00 | 28 | 1006.5 |
| 20260508014524 | 22 | 292 | 0.0 | 6.4 | 0.00 | 0.00 | 0.00 | 25 | 1006.6 |
| 20260508013022 | 24 | 286 | 0.0 | 6.4 | 0.00 | 0.00 | 0.00 | 21 | 1006.7 |
| 20260508011522 | 25 | 293 | 0.0 | 4.8 | 0.00 | 0.00 | 0.00 | 20 | 1006.7 |
| 20260508010025 | 26 | 284 | 0.0 | 3.2 | 0.00 | 0.00 | 0.00 | 20 | 1006.8 |
| 20260508004518 | 25 | 292 | 0.0 | 4.8 | 0.00 | 0.00 | 0.00 | 20 | 1006.9 |
| 20260508003015 | 25 | 240 | 0.0 | 6.4 | 0.00 | 0.00 | 0.00 | 21 | 1007.1 |
| 20260508001513 | 25 | 285 | 0.0 | 3.2 | 0.00 | 0.00 | 0.00 | 23 | 1007.2 |
| 20260508000012 | 23 | 286 | 0.0 | 1.6 | 0.00 | 0.00 | 0.00 | 24 | 1007.4 |
| 20260507234510 | 23 | 271 | 1.6 | 8.0 | 0.00 | 0.00 | 0.00 | 23 | 1007.6 |
| 20260507233009 | 23 | 309 | 0.0 | 12.9 | 0.00 | 0.00 | 0.00 | 23 | 1007.8 |
| 20260507231514 | 25 | 286 | 3.2 | 19.3 | 0.00 | 0.00 | 0.00 | 22 | 1008.0 |
| 20260507230004 | 24 | 303 | 1.6 | 8.0 | 0.00 | 0.00 | 0.00 | 25 | 1008.3 |
| 20260507224503 | 24 | 31 | 0.0 | 8.0 | 0.00 | 0.00 | 0.00 | 24 | 1008.7 |
| 20260507223059 | 24 | 42 | 0.0 | 6.4 | 0.00 | 0.00 | 0.00 | 24 | 1009.0 |
| 20260507221601 | 24 | 40 | 1.6 | 14.5 | 0.00 | 0.00 | 0.00 | 24 | 1009.1 |
| 20260507220057 | 23 | 271 | 8.0 | 20.9 | 0.00 | 0.00 | 0.00 | 24 | 1009.3 |
| 20260507214554 | 23 | 282 | 0.0 | 16.1 | 0.00 | 0.00 | 0.00 | 23 | 1009.4 |